Weather History for Hearne, TX

Change the Weather History Date:

Monday, February 18, 2013

  Actual Average (KCLL) Record (KCLL)
Temperature  
Mean Temperature 66 °F 55 °F  
Max Temperature 78 °F 65 °F 89 °F (1986)
Min Temperature 53 °F 45 °F 17 °F (1910)
Degree Days  
Heating Degree Days 0 10  
Month to date heating degree days 215  
Since 1 July heating degree days 1293  
Cooling Degree Days 0 1  
Month to date cooling degree days 15  
Year to date cooling degree days 26  
Growing Degree Days 16 (Base 50)    
Moisture  
Dew Point 49 °F    
Average Humidity 60    
Maximum Humidity 94    
Minimum Humidity 28    
Precipitation  
Precipitation 0.03 in 0.11 in 2.64 in (1963)
Month to date precipitation 1.88  
Year to date precipitation 5.12  
Sea Level Pressure  
Sea Level Pressure 29.93 in    
Wind  
Wind Speed 12 mph (South)    
Max Wind Speed 24 mph    
Max Gust Speed 32 mph    
Visibility 10 miles    
Events Rain    
T = Trace of Precipitation, MM = Missing Value Source: NWS Daily Summary

Daily Weather History Graph

Daily Weather History Graph

Search for Another Location

Airport:

Trip Planner

Search our weather history database for the weather conditions in past years. The results will help you decide how hot, cold, wet, or windy it might be!

Date:

Astronomy

Feb. 18, 2013 Rise Set
Actual Time 7:04 AM CST 6:16 PM CST
Civil Twilight 6:39 AM CST 6:41 PM CST
Nautical Twilight 6:11 AM CST 7:09 PM CST
Astronomical Twilight 5:43 AM CST 7:37 PM CST
Moon 12:14 PM CST (2/18) 1:34 AM CST (2/18)
Length of Visible Light 12h 01m
Length of Day
11h 12m
First Quarter, 58% of the Moon is Illuminated
Feb 18
First Quarter
Feb 25
Full
Mar 4
Last Quarter
Mar 11
New
Mar 19
First Quarter

Hourly Weather History & Observations

Time (CST) Temp. Dew Point Humidity Pressure Visibility Wind Dir Wind Speed Gust Speed Precip Events Conditions
12:15 AM 59.0 °F 48.2 °F 67% 29.99 in 10.0 mi SSE 12.7 mph - N/A   Mostly Cloudy
12:35 AM 59.0 °F 50.0 °F 72% 29.99 in 10.0 mi SSE 10.4 mph - N/A   Overcast
12:55 AM 59.0 °F 50.0 °F 72% 29.98 in 10.0 mi SSE 12.7 mph 19.6 mph N/A   Overcast
1:15 AM 59.0 °F 50.0 °F 72% 29.98 in 10.0 mi SSE 10.4 mph - N/A   Overcast
1:35 AM 59.0 °F 50.0 °F 72% 29.97 in 10.0 mi SSE 10.4 mph - N/A   Overcast
1:55 AM 59.0 °F 50.0 °F 72% 29.96 in 10.0 mi SSE 8.1 mph - N/A   Overcast
2:15 AM 59.0 °F 50.0 °F 72% 29.96 in 10.0 mi SSE 8.1 mph - N/A   Overcast
2:35 AM 59.0 °F 50.0 °F 72% 29.94 in 10.0 mi SE 8.1 mph - N/A   Overcast
2:55 AM 57.2 °F 50.0 °F 77% 29.94 in 10.0 mi SE 5.8 mph - N/A   Overcast
3:15 AM 57.2 °F 50.0 °F 77% 29.93 in 10.0 mi SE 6.9 mph - N/A   Overcast
3:35 AM 59.0 °F 51.8 °F 77% 29.93 in 10.0 mi SSE 8.1 mph - N/A   Overcast
3:55 AM 59.0 °F 51.8 °F 77% 29.93 in 10.0 mi SSE 11.5 mph - N/A   Overcast
4:15 AM 60.8 °F 51.8 °F 72% 29.92 in 10.0 mi SSE 11.5 mph 16.1 mph N/A   Overcast
4:35 AM 60.8 °F 53.6 °F 77% 29.92 in 10.0 mi South 15.0 mph 18.4 mph N/A   Overcast
4:55 AM 60.8 °F 53.6 °F 77% 29.92 in 10.0 mi SSE 12.7 mph - N/A   Overcast
5:15 AM 60.8 °F 53.6 °F 77% 29.92 in 10.0 mi South 10.4 mph 17.3 mph N/A   Overcast
5:35 AM 60.8 °F 53.6 °F 77% 29.92 in 10.0 mi SSE 8.1 mph - N/A   Overcast
5:55 AM 60.8 °F 53.6 °F 77% 29.91 in 10.0 mi SSE 12.7 mph - N/A   Overcast
6:15 AM 60.8 °F 55.4 °F 82% 29.91 in 10.0 mi SSE 13.8 mph 18.4 mph N/A   Overcast
6:35 AM 60.8 °F 55.4 °F 82% 29.91 in 10.0 mi SSE 11.5 mph - N/A   Overcast
6:55 AM 60.8 °F 55.4 °F 82% 29.91 in 10.0 mi SSE 13.8 mph - N/A   Overcast
7:15 AM 60.8 °F 55.4 °F 82% 29.91 in 10.0 mi SSE 12.7 mph 18.4 mph N/A   Overcast
7:35 AM 60.8 °F 55.4 °F 82% 29.91 in 10.0 mi SSE 11.5 mph 16.1 mph N/A   Overcast
7:55 AM 60.8 °F 55.4 °F 82% 29.91 in 10.0 mi SSE 9.2 mph - N/A   Overcast
8:15 AM 60.8 °F 55.4 °F 82% 29.91 in 10.0 mi SSE 9.2 mph - N/A   Overcast
8:35 AM 62.6 °F 55.4 °F 77% 29.92 in 10.0 mi SSE 9.2 mph - N/A   Overcast
8:55 AM 62.6 °F 55.4 °F 77% 29.93 in 10.0 mi SSE 9.2 mph - N/A   Overcast
9:15 AM 62.6 °F 57.2 °F 82% 29.95 in 10.0 mi SSE 6.9 mph - N/A   Overcast
9:35 AM 62.6 °F 57.2 °F 82% 29.96 in 10.0 mi South 5.8 mph - N/A   Overcast
9:55 AM 62.6 °F 57.2 °F 82% 29.96 in 10.0 mi SE 5.8 mph - N/A   Overcast
10:15 AM 62.6 °F 57.2 °F 82% 29.95 in 10.0 mi South 8.1 mph - N/A Rain Light Rain
10:35 AM 62.6 °F 59.0 °F 88% 29.93 in 10.0 mi SSE 8.1 mph - N/A   Light Drizzle
10:55 AM 62.6 °F 60.8 °F 94% 29.94 in 7.0 mi SSE 9.2 mph 17.3 mph 0.03 in Rain Light Rain
11:15 AM 64.4 °F 60.8 °F 88% 29.93 in 10.0 mi SSE 9.2 mph - N/A   Overcast
11:35 AM 68.0 °F 60.8 °F 78% 29.92 in 10.0 mi SSW 17.3 mph 23.0 mph N/A   Mostly Cloudy
11:55 AM 69.8 °F 60.8 °F 73% 29.91 in 10.0 mi SSW 17.3 mph 21.9 mph N/A   Overcast
12:15 PM 69.8 °F 59.0 °F 68% 29.90 in 10.0 mi SSW 20.7 mph 29.9 mph N/A   Overcast
12:35 PM 71.6 °F 60.8 °F 69% 29.90 in 10.0 mi SSW 24.2 mph 32.2 mph N/A   Mostly Cloudy
12:55 PM 73.4 °F 59.0 °F 61% 29.88 in 10.0 mi SSW 19.6 mph 28.8 mph N/A   Scattered Clouds
1:15 PM 73.4 °F 59.0 °F 61% 29.86 in 10.0 mi SSW 20.7 mph 27.6 mph N/A   Clear
1:35 PM 73.4 °F 59.0 °F 61% 29.85 in 10.0 mi SSW 24.2 mph 28.8 mph N/A   Scattered Clouds
1:55 PM 75.2 °F 59.0 °F 57% 29.84 in 10.0 mi SSW 18.4 mph 25.3 mph N/A   Scattered Clouds
2:15 PM 77.0 °F 59.0 °F 54% 29.84 in 10.0 mi SSW 15.0 mph 23.0 mph N/A   Scattered Clouds
2:35 PM 77.0 °F 55.4 °F 47% 29.84 in 10.0 mi SW 17.3 mph 23.0 mph N/A   Scattered Clouds
2:55 PM 77.0 °F 53.6 °F 44% 29.83 in 10.0 mi SW 12.7 mph 19.6 mph N/A   Scattered Clouds
3:15 PM 78.8 °F 51.8 °F 39% 29.83 in 10.0 mi WSW 17.3 mph - N/A   Mostly Cloudy
3:35 PM 77.0 °F 51.8 °F 41% 29.83 in 10.0 mi SW 12.7 mph 24.2 mph N/A   Scattered Clouds
3:55 PM 78.8 °F 48.2 °F 34% 29.83 in 10.0 mi WSW 12.7 mph 17.3 mph N/A   Scattered Clouds
4:15 PM 78.8 °F 48.2 °F 34% 29.83 in 10.0 mi SW 16.1 mph 19.6 mph N/A   Clear
4:35 PM 78.8 °F 50.0 °F 36% 29.83 in 10.0 mi SW 11.5 mph 17.3 mph N/A   Mostly Cloudy
5:15 PM 77.0 °F 50.0 °F 39% 29.84 in 10.0 mi WSW 9.2 mph - N/A   Scattered Clouds
5:35 PM 77.0 °F 44.6 °F 32% 29.85 in 10.0 mi West 6.9 mph - N/A   Clear
5:55 PM 73.4 °F 41.0 °F 31% 29.86 in 10.0 mi WNW 6.9 mph - N/A   Clear
6:15 PM 71.6 °F 39.2 °F 31% 29.87 in 10.0 mi NW 6.9 mph - N/A   Clear
6:35 PM 69.8 °F 35.6 °F 28% 29.88 in 10.0 mi WNW 8.1 mph - N/A   Clear
6:55 PM 68.0 °F 33.8 °F 28% 29.91 in 10.0 mi NNW 17.3 mph 27.6 mph N/A   Clear
7:15 PM 66.2 °F 33.8 °F 30% 29.94 in 10.0 mi NNW 17.3 mph 25.3 mph N/A   Clear
7:35 PM 64.4 °F 33.8 °F 32% 29.96 in 10.0 mi North 13.8 mph - N/A   Clear
7:55 PM 62.6 °F 33.8 °F 34% 29.97 in 10.0 mi North 13.8 mph 23.0 mph N/A   Clear
8:15 PM 60.8 °F 33.8 °F 36% 29.98 in 10.0 mi NNW 17.3 mph - N/A   Clear
8:35 PM 60.8 °F 32.0 °F 34% 30.01 in 10.0 mi NNW 20.7 mph 24.2 mph N/A   Clear
8:55 PM 60.8 °F 32.0 °F 34% 30.01 in 10.0 mi NNW 17.3 mph 29.9 mph N/A   Clear
9:15 PM 59.0 °F 32.0 °F 36% 30.03 in 10.0 mi NNW 15.0 mph - N/A   Clear
9:35 PM 59.0 °F 33.8 °F 39% 30.03 in 10.0 mi NNW 18.4 mph 24.2 mph N/A   Clear
9:55 PM 59.0 °F 33.8 °F 39% 30.04 in 10.0 mi NNW 17.3 mph 24.2 mph N/A   Clear
10:15 PM 57.2 °F 33.8 °F 41% 30.06 in 10.0 mi NNW 18.4 mph 25.3 mph N/A   Clear
10:35 PM 55.4 °F 33.8 °F 44% 30.07 in 10.0 mi NNW 16.1 mph 21.9 mph N/A   Clear
10:55 PM 55.4 °F 33.8 °F 44% 30.09 in 10.0 mi NNW 13.8 mph 19.6 mph N/A   Clear
11:15 PM 53.6 °F 33.8 °F 47% 30.10 in 10.0 mi NNW 11.5 mph - N/A   Clear
11:35 PM 53.6 °F 33.8 °F 47% 30.11 in 10.0 mi North 11.5 mph 18.4 mph N/A   Clear
11:55 PM 53.6 °F 33.8 °F 47% 30.12 in 10.0 mi North 9.2 mph - N/A   Clear